Find Starlink 32812

NORAD ID: 63038 Int'l Des: 2025-034 Owner: SPXS Country: US Constellation: starlink operational
LEOCIRCULAR

当前视图

正在加载3D地球...

About Starlink 32812

Starlink 32812 (NORAD 63038) is a starlink constellation satellite (v2 mini) launched Feb 18, 2025 by SPXS of US. It operates in LEO, CIRCULAR orbit with a mass of 730.00 kg.

关于 Starlink 32812

正在加载描述...

即将过境

Passes for default location (London). Set your location on the main map for personalized predictions.

高度历史

Loading altitude history...

两行轨道根数

1 63038U 25034K 26194.86735149 .00012634 00000-0 43787-3 0 9997
2 63038 53.1601 32.1451 0001030 94.8936 265.2182 15.30206031 78403
Epoch: Jul 13, 2026 • Age: 11 hours

当前状态

高度 475.4 km
远地点 / 近地点 N/A
速度 7.63 km/s
星下点 7.21°N, 14.2°W
发射日期 Feb 18, 2025
运行时间 1.3 years
类型 internet

技术详情

分类 Payload
质量 730.00 kg
干质量 700.00 kg
总质量 730.00 kg
长度 0.30 m
直径 4.10 m
跨度 29.00 m
形状 Box + pan
制造商 SPXS
平台类型 Starlink V2M
阶段状态 In Orbit
所有者/国家 SPXS/US

Most Searched